Location: Newark
(9.4667°S, 159.8167°E)
Time: 01:08:09
(UTC+00:00)

N. Korean satellite - Visible Passes

Search period start: 20 October 2019 00:00
Search period end: 30 October 2019 00:00
Orbit: 455 x 508 km, 97.2° (Epoch: 19 October)

Date Brightness Start Highest point End Pass type
(mag) Time Alt. Az. Time Alt. Az. Time Alt. Az.
22 Oct 9.0 18:21:15 10° NE 18:24:32 30° ESE 18:27:50 10° SSE visible
23 Oct 9.9 07:37:53 10° SSW 07:40:18 18° WSW 07:42:42 10° WNW visible
23 Oct 10.4 17:57:41 10° ENE 17:59:21 13° ESE 18:01:01 10° SE visible
26 Oct 9.5 18:13:44 10° NE 18:16:43 23° ESE 18:19:43 10° SSE visible
29 Oct 8.1 18:30:32 10° NNE 18:34:05 44° ESE 18:37:39 10° S visible
